sat.trackr.live / text

‹ back to catalog

STARLINK-35894

NORAD 66500 · 2025-263R

PAYLOAD ACTIVE UNKNOWN

§ Identity

Operator
Country
US
Launch date
2025-11-15
Launch site
AFETR
Launch vehicle
Mass (kg)
RCS (m²)

Purposes: comms

External: N2YO · Heavens-Above · Gunter

§ Orbital elements

Epoch: 2026-05-24T19:51:59.045472Z

Period
94.27 min
Inclination
43.0005°
Eccentricity
0.0001098
Mean motion
15.27591466 rev/d
Perigee alt
482.3 km
Apogee alt
483.8 km
Semi-major
6,861.2 km
B*
6.7093e-4
RAAN
284.1417°
Arg perigee
262.4682°
Mean anomaly
97.6044°
Rev number
3,050

§ Raw data

STARLINK-358941 66500U 25263R   26144.82776673  .00018253  00000+0  67093-3 0  99942 66500  43.0005 284.1417 0001098 262.4682  97.6044 15.27591466 30500

JSON: /api/v1/satellites/66500 · /tle

For live sub-satellite position, see the globe view (requires WebGL).

§ Visibility from observer

Set your observer location to see the next 7 days of passes ≥ 10°. The values pass through the URL so the page stays shareable.

No JS? Fill the form by hand. The geolocation button needs JavaScript.